Weather History for KMVE - December, 2013

Change the Weather History Date:

Wednesday, December 4, 2013

  Actual Average (WUND) Record (WUND)
Temperature  
Mean Temperature 19 °F -  
Max Temperature 32 °F - - (-1)
Min Temperature 6 °F - - (-1)
Degree Days  
Heating Degree Days 46    
Moisture  
Dew Point 23 °F    
Average Humidity 99    
Maximum Humidity 100    
Minimum Humidity 92    
Precipitation  
Precipitation 0.09 in - - ()
Sea Level Pressure  
Sea Level Pressure 29.69 in    
Wind  
Wind Speed 8 mph (NNE)    
Max Wind Speed 23 mph    
Max Gust Speed 34 mph    
Visibility 4 miles    
Events Snow    
Averages and records for this station are not official NWS values.
T = Trace of Precipitation, MM = Missing Value Source: NWS Daily Summary

Daily Weather History Graph

Daily Weather History Graph

Search for Another Location

Airport or City:

Trip Planner

Search our weather history database for the weather conditions in past years. The results will help you decide how hot, cold, wet, or windy it might be!

Date:

Astronomy

Dec. 04, 2013 Rise Set
Actual Time 7:44 AM CST 4:41 PM CST
Civil Twilight 7:11 AM CST 5:15 PM CST
Nautical Twilight 6:34 AM CST 5:51 PM CST
Astronomical Twilight 5:58 AM CST 6:27 PM CST
Moon 9:11 AM CST (12/4) 6:55 PM CST (12/4)
Length of Visible Light 10h 04m
Length of Day
8h 57m
Waxing Crescent, 4% of the Moon is Illuminated
Dec 4
Waxing Crescent
Dec 9
First Quarter
Dec 17
Full
Dec 25
Last Quarter
Jan 1
New

Hourly Weather History & Observations

Time (CST) Temp. Windchill Dew Point Humidity Pressure Visibility Wind Dir Wind Speed Gust Speed Precip Events Conditions
12:14 AM 28.4 °F 23.3 °F 28.4 °F 100% 29.76 in 3.0 mi North 4.6 mph - N/A   Overcast
12:34 AM 28.4 °F - 28.4 °F 100% 29.75 in 4.0 mi Calm Calm - N/A   Overcast
12:54 AM 30.2 °F 24.3 °F 30.2 °F 100% 29.74 in 2.5 mi East 5.8 mph - N/A Snow Light Snow
1:14 AM 32.0 °F 26.4 °F 32.0 °F 100% 29.74 in 1.5 mi East 5.8 mph - N/A Snow Light Snow
1:34 AM 32.0 °F 26.4 °F 32.0 °F 100% 29.75 in 1.2 mi East 5.8 mph - 0.01 in Snow Light Snow
1:54 AM 32.0 °F 25.6 °F 32.0 °F 100% 29.74 in 1.2 mi ESE 6.9 mph - 0.02 in Snow Light Snow
2:14 AM 32.0 °F 27.5 °F 32.0 °F 100% 29.74 in 1.2 mi East 4.6 mph - 0.01 in Snow Light Snow
2:34 AM 32.0 °F 25.6 °F 32.0 °F 100% 29.74 in 1.5 mi East 6.9 mph - 0.01 in Snow Light Snow
2:54 AM 30.2 °F 21.9 °F 30.2 °F 100% 29.73 in 1.8 mi ESE 9.2 mph - 0.02 in Snow Light Snow
3:14 AM 30.2 °F 24.3 °F 30.2 °F 100% 29.74 in 4.0 mi ESE 5.8 mph - N/A Snow Light Snow
3:34 AM 30.2 °F 25.4 °F 30.2 °F 100% 29.72 in 1.2 mi East 4.6 mph - N/A Snow Light Snow
3:54 AM 30.2 °F 22.6 °F 30.2 °F 100% 29.72 in 2.0 mi East 8.1 mph - 0.01 in Snow Light Snow
4:14 AM 30.2 °F 21.9 °F 30.2 °F 100% 29.72 in 2.0 mi East 9.2 mph - N/A Snow Light Snow
4:34 AM 30.2 °F 24.3 °F 30.2 °F 100% 29.71 in 2.5 mi East 5.8 mph - N/A Snow Light Snow
4:54 AM 30.2 °F 21.9 °F 30.2 °F 100% 29.72 in 1.5 mi East 9.2 mph - N/A Snow Light Snow
5:14 AM 28.4 °F 23.3 °F 28.4 °F 100% 29.72 in 1.2 mi East 4.6 mph - N/A Snow Light Snow
5:34 AM 28.4 °F 23.3 °F 28.4 °F 100% 29.71 in 1.2 mi East 4.6 mph - N/A Snow Light Snow
5:54 AM 28.4 °F 21.2 °F 28.4 °F 100% 29.70 in 1.5 mi East 6.9 mph - 0.01 in Snow Light Snow
6:14 AM 28.4 °F 21.2 °F 28.4 °F 100% 29.69 in 1.5 mi East 6.9 mph - N/A Snow Light Snow
6:33 AM 28.4 °F 19.7 °F 28.4 °F 100% 29.68 in 1.5 mi East 9.2 mph - N/A Snow Light Snow
6:54 AM 28.4 °F 20.4 °F 28.4 °F 100% 29.68 in 1.8 mi East 8.1 mph - N/A Snow Light Snow
7:14 AM 28.4 °F 22.2 °F 28.4 °F 100% 29.68 in 1.8 mi East 5.8 mph - N/A Snow Light Snow
7:34 AM 28.4 °F 22.2 °F 28.4 °F 100% 29.68 in 1.8 mi East 5.8 mph - 0.01 in Snow Light Snow
7:53 AM 28.4 °F 23.3 °F 28.4 °F 100% 29.68 in 1.5 mi ENE 4.6 mph - 0.01 in Snow Light Snow
8:14 AM 28.4 °F 23.3 °F 28.4 °F 100% 29.67 in 2.0 mi ENE 4.6 mph - N/A Snow Light Snow
8:34 AM 26.6 °F 19.1 °F 26.6 °F 100% 29.67 in 2.0 mi ENE 6.9 mph - 0.01 in Snow Light Snow
8:54 AM 26.6 °F 21.2 °F 26.6 °F 100% 29.67 in 3.0 mi ENE 4.6 mph - 0.01 in Snow Light Snow
9:14 AM 26.6 °F 20.0 °F 26.6 °F 100% 29.65 in 7.0 mi ENE 5.8 mph - N/A   Mostly Cloudy
9:34 AM 28.4 °F 23.3 °F 28.4 °F 100% 29.65 in 4.0 mi ENE 4.6 mph - N/A Snow Light Snow
9:54 AM 26.6 °F 19.1 °F 26.6 °F 100% 29.64 in 2.5 mi ENE 6.9 mph - N/A Snow Light Snow
10:14 AM 26.6 °F 20.0 °F 26.6 °F 100% 29.65 in 1.8 mi East 5.8 mph - N/A Snow Light Snow
10:34 AM 28.4 °F 23.3 °F 28.4 °F 100% 29.66 in 2.0 mi NE 4.6 mph - N/A Snow Light Snow
10:54 AM 28.4 °F 21.2 °F 28.4 °F 100% 29.64 in 1.0 mi NE 6.9 mph - N/A Snow Light Snow
11:14 AM 28.4 °F 21.2 °F 28.4 °F 100% 29.62 in 2.0 mi NNE 6.9 mph - 0.01 in Snow Light Snow
11:34 AM 28.4 °F 22.2 °F 28.4 °F 100% 29.62 in 7.0 mi North 5.8 mph - 0.01 in   Scattered Clouds
11:54 AM 28.4 °F 21.2 °F 28.4 °F 100% 29.61 in 2.0 mi North 6.9 mph - 0.01 in Snow Light Snow
12:14 PM 28.4 °F 21.2 °F 28.4 °F 100% 29.61 in 1.8 mi North 6.9 mph - N/A Snow Light Snow
12:34 PM 28.4 °F 21.2 °F 28.4 °F 100% 29.59 in 1.8 mi North 6.9 mph - N/A Snow Light Snow
12:54 PM 28.4 °F 20.4 °F 28.4 °F 100% 29.58 in 1.2 mi North 8.1 mph - N/A Snow Light Snow
1:13 PM 28.4 °F 20.4 °F 28.4 °F 100% 29.59 in 1.5 mi North 8.1 mph - N/A Snow Light Snow
1:34 PM 26.6 °F 16.2 °F 26.6 °F 100% 29.58 in 0.8 mi North 11.5 mph - N/A Snow Light Snow
1:54 PM 26.6 °F 15.2 °F 26.6 °F 100% 29.58 in 1.5 mi North 13.8 mph - N/A Snow Light Snow
2:14 PM 26.6 °F 15.2 °F 26.6 °F 100% 29.56 in 3.0 mi North 13.8 mph - N/A Snow Light Snow
2:34 PM 24.8 °F 11.9 °F 24.8 °F 100% 29.56 in 4.0 mi North 16.1 mph 19.6 mph N/A Snow Light Snow
2:54 PM 24.8 °F 12.4 °F 24.8 °F 100% 29.57 in 5.0 mi North 15.0 mph 20.7 mph N/A Snow Light Snow
3:14 PM 24.8 °F 11.9 °F 24.8 °F 100% 29.60 in 7.0 mi North 16.1 mph 23.0 mph N/A Snow Light Snow
3:34 PM 23.0 °F 9.2 °F 23.0 °F 100% 29.60 in 10.0 mi North 17.3 mph 21.9 mph N/A   Overcast
3:54 PM 21.2 °F 6.8 °F 21.2 °F 100% 29.61 in 7.0 mi North 17.3 mph 26.5 mph N/A   Overcast
4:14 PM 19.4 °F 5.0 °F 19.4 °F 100% 29.63 in 10.0 mi North 16.1 mph 21.9 mph N/A   Overcast
4:34 PM 19.4 °F 5.0 °F 19.4 °F 100% 29.64 in 10.0 mi North 16.1 mph 24.2 mph N/A   Overcast
4:54 PM 19.4 °F 3.6 °F 19.4 °F 100% 29.63 in 7.0 mi North 19.6 mph 25.3 mph N/A   Overcast
5:14 PM 17.6 °F 1.7 °F 17.6 °F 100% 29.63 in 7.0 mi North 18.4 mph 26.5 mph N/A   Overcast
5:34 PM 17.6 °F 3.2 °F 17.6 °F 100% 29.66 in 7.0 mi NNW 15.0 mph 27.6 mph N/A Snow Light Snow
5:54 PM 17.6 °F 0.9 °F 17.6 °F 100% 29.66 in 5.0 mi North 20.7 mph 25.3 mph N/A Snow Light Snow
6:14 PM 17.6 °F 2.7 °F 17.6 °F 100% 29.68 in 5.0 mi NNW 16.1 mph 26.5 mph N/A Snow Light Snow
6:33 PM 15.8 °F 0.3 °F 15.8 °F 100% 29.68 in 4.0 mi NNW 16.1 mph 25.3 mph N/A Snow Light Snow
6:54 PM 15.8 °F 0.3 °F 15.8 °F 100% 29.69 in 3.0 mi NW 16.1 mph 25.3 mph N/A Snow Light Snow
7:14 PM 14.0 °F -4.7 °F 12.2 °F 93% 29.70 in 3.0 mi NNW 23.0 mph 33.4 mph N/A Snow Light Snow
7:34 PM 12.2 °F -5.3 °F 12.2 °F 100% 29.71 in 4.0 mi NNW 18.4 mph 34.5 mph N/A Snow Light Snow
7:54 PM 12.2 °F -5.8 °F 10.4 °F 92% 29.72 in 4.0 mi NNW 19.6 mph 28.8 mph N/A   Overcast
8:14 PM 12.2 °F -3.7 °F 10.4 °F 92% 29.74 in 5.0 mi NNW 15.0 mph 27.6 mph N/A   Overcast
8:34 PM 10.4 °F -7.2 °F 10.4 °F 100% 29.74 in 7.0 mi NNW 17.3 mph 25.3 mph N/A   Scattered Clouds
8:54 PM 10.4 °F -6.6 °F 8.6 °F 92% 29.75 in 7.0 mi NNW 16.1 mph 26.5 mph N/A   Mostly Cloudy
9:14 PM 10.4 °F -6.6 °F 8.6 °F 92% 29.76 in 7.0 mi NW 16.1 mph 24.2 mph N/A   Overcast
9:34 PM 8.6 °F -8.3 °F 6.8 °F 92% 29.76 in 7.0 mi NNW 15.0 mph 24.2 mph N/A Snow Light Snow
9:54 PM 8.6 °F -7.7 °F 6.8 °F 92% 29.77 in 7.0 mi NNW 13.8 mph 23.0 mph N/A Snow Light Snow
10:14 PM 8.6 °F -9.5 °F 6.8 °F 92% 29.77 in 7.0 mi NNW 17.3 mph 23.0 mph N/A Snow Light Snow
10:34 PM 8.6 °F -8.9 °F 6.8 °F 92% 29.77 in 7.0 mi NNW 16.1 mph 27.6 mph N/A   Overcast
10:54 PM 8.6 °F -7.7 °F 6.8 °F 92% 29.78 in 10.0 mi NNW 13.8 mph 23.0 mph N/A   Overcast
11:14 PM 8.6 °F -8.3 °F 6.8 °F 92% 29.80 in 7.0 mi NNW 15.0 mph 23.0 mph N/A   Overcast
11:34 PM 6.8 °F -10.0 °F 5.0 °F 92% 29.82 in 7.0 mi NNW 13.8 mph 26.5 mph N/A   Overcast
11:54 PM 8.6 °F -10.5 °F 6.8 °F 92% 29.82 in 5.0 mi NNW 19.6 mph 26.5 mph N/A   Overcast